Weather History for Hollywood, FL

Change the Weather History Date:

Sunday, January 12, 2014

  Actual Average (KFLL) Record (KFLL)
Temperature  
Mean Temperature 72 °F 69 °F  
Max Temperature 80 °F 76 °F 86 °F (1925)
Min Temperature 64 °F 61 °F 32 °F (1982)
Degree Days  
Heating Degree Days 0 2  
Month to date heating degree days 24  
Since 1 July heating degree days 56  
Cooling Degree Days 7 5  
Month to date cooling degree days 69  
Year to date cooling degree days 69  
Growing Degree Days 22 (Base 50)    
Moisture  
Dew Point 65 °F    
Average Humidity 82    
Maximum Humidity 100    
Minimum Humidity 42    
Precipitation  
Precipitation 0.00 in 0.08 in 1.49 in (1939)
Month to date precipitation 0.99  
Year to date precipitation 0.99  
Snow  
Snow 0.00 in - - ()
Month to date snowfall  
Since 1 July snowfall  
Snow Depth -    
Sea Level Pressure  
Sea Level Pressure 30.11 in    
Wind  
Wind Speed 6 mph (WNW)    
Max Wind Speed 13 mph    
Max Gust Speed -    
Visibility 10 miles    
Events      
T = Trace of Precipitation, MM = Missing Value Source: NWS Daily Summary

Daily Weather History Graph

Daily Weather History Graph

Search for Another Location

Airport:

Trip Planner

Search our weather history database for the weather conditions in past years. The results will help you decide how hot, cold, wet, or windy it might be!

Date:

Astronomy

Jan. 12, 2014 Rise Set
Actual Time 7:09 AM EST 5:49 PM EST
Civil Twilight 6:44 AM EST 6:13 PM EST
Nautical Twilight 6:16 AM EST 6:42 PM EST
Astronomical Twilight 5:48 AM EST 7:10 PM EST
Moon 3:13 PM EST (1/12) 4:09 AM EST (1/12)
Length of Visible Light 11h 29m
Length of Day
10h 39m
Waxing Gibbous, 89% of the Moon is Illuminated
Jan 12
Waxing Gibbous
Jan 15
Full
Jan 24
Last Quarter
Jan 30
New
Feb 6
First Quarter

Hourly Weather History & Observations

Time (EST) Temp. Heat Index Dew Point Humidity Pressure Visibility Wind Dir Wind Speed Gust Speed Precip Events Conditions
12:53 AM 71.1 °F - 70.0 °F 96% 30.08 in 10.0 mi WSW 4.6 mph - N/A   Clear
1:53 AM 72.0 °F - 70.0 °F 93% 30.06 in 10.0 mi SSW 3.5 mph - N/A   Mostly Cloudy
2:40 AM 71.6 °F - 69.8 °F 94% 30.06 in 10.0 mi SSW 5.8 mph - N/A   Mostly Cloudy
2:53 AM 72.0 °F - 71.1 °F 97% 30.06 in 10.0 mi SW 6.9 mph - N/A   Mostly Cloudy
3:27 AM 71.6 °F - 71.6 °F 100% 30.05 in 10.0 mi SW 5.8 mph - N/A   Scattered Clouds
3:53 AM 72.0 °F - 70.0 °F 93% 30.06 in 10.0 mi WSW 5.8 mph - N/A   Clear
4:17 AM 71.6 °F - 69.8 °F 94% 30.05 in 10.0 mi WSW 4.6 mph - N/A   Scattered Clouds
4:39 AM 71.6 °F - 69.8 °F 94% 30.04 in 10.0 mi SW 3.5 mph - N/A   Mostly Cloudy
4:53 AM 71.1 °F - 70.0 °F 96% 30.06 in 10.0 mi West 5.8 mph - N/A   Mostly Cloudy
5:14 AM 71.6 °F - 69.8 °F 94% 30.06 in 10.0 mi West 5.8 mph - N/A   Overcast
5:21 AM 71.6 °F - 69.8 °F 94% 30.07 in 10.0 mi West 6.9 mph - N/A   Overcast
5:28 AM 71.6 °F - 69.8 °F 94% 30.07 in 10.0 mi WSW 6.9 mph - N/A   Overcast
5:36 AM 71.6 °F - 69.8 °F 94% 30.07 in 10.0 mi West 5.8 mph - N/A   Overcast
5:43 AM 71.6 °F - 69.8 °F 94% 30.07 in 10.0 mi West 5.8 mph - N/A   Overcast
5:53 AM 71.1 °F - 70.0 °F 96% 30.08 in 10.0 mi West 8.1 mph - N/A   Mostly Cloudy
6:21 AM 71.6 °F - 69.8 °F 94% 30.08 in 10.0 mi WNW 5.8 mph - N/A   Mostly Cloudy
6:36 AM 71.6 °F - 69.8 °F 94% 30.08 in 10.0 mi West 6.9 mph - N/A   Scattered Clouds
6:53 AM 71.1 °F - 69.1 °F 93% 30.09 in 10.0 mi WNW 6.9 mph - N/A   Scattered Clouds
7:53 AM 70.0 °F - 66.0 °F 87% 30.12 in 10.0 mi NW 12.7 mph - N/A   Overcast
8:53 AM 70.0 °F - 64.0 °F 81% 30.16 in 10.0 mi North 11.5 mph - N/A   Overcast
9:53 AM 72.0 °F - 63.0 °F 73% 30.18 in 10.0 mi NNW 11.5 mph - N/A   Scattered Clouds
10:53 AM 73.9 °F - 63.0 °F 68% 30.17 in 10.0 mi NNW 9.2 mph - N/A   Clear
11:53 AM 75.0 °F - 61.0 °F 62% 30.15 in 10.0 mi NW 8.1 mph - N/A   Clear
12:53 PM 78.1 °F - 57.9 °F 50% 30.12 in 10.0 mi NNW 6.9 mph - N/A   Clear
1:53 PM 80.1 °F 80.1 °F 55.0 °F 42% 30.11 in 10.0 mi NNW 9.2 mph - N/A   Clear
2:53 PM 80.1 °F 80.2 °F 55.9 °F 43% 30.10 in 10.0 mi NNE 5.8 mph - N/A   Clear
3:53 PM 75.9 °F - 61.0 °F 60% 30.12 in 10.0 mi ENE 12.7 mph - N/A   Clear
4:53 PM 73.9 °F - 61.0 °F 64% 30.14 in 10.0 mi NE 9.2 mph - N/A   Clear
5:53 PM 71.1 °F - 60.1 °F 68% 30.15 in 10.0 mi NE 5.8 mph - N/A   Clear
6:53 PM 70.0 °F - 60.1 °F 71% 30.16 in 10.0 mi NNE 4.6 mph - N/A   Clear
7:53 PM 68.0 °F - 60.1 °F 76% 30.17 in 10.0 mi North 3.5 mph - N/A   Clear
8:53 PM 66.0 °F - 60.1 °F 81% 30.18 in 10.0 mi North 4.6 mph - N/A   Clear
9:53 PM 64.9 °F - 59.0 °F 81% 30.18 in 10.0 mi North 5.8 mph - N/A   Clear
10:53 PM 64.9 °F - 59.0 °F 81% 30.17 in 10.0 mi North 3.5 mph - N/A   Clear
11:53 PM 64.0 °F - 59.0 °F 84% 30.16 in 10.0 mi Calm Calm - N/A   Clear